When you browse on this site, cookies collect data to enhance your experience and personalize the content and advertising you see.
Visit our Privacy Policy to learn more. By continuing to use the site, you agree to this use of cookies and data.
  • In Hungary
  • List of Countries
  • For 7 days
  • Water Temperature
  • Satellite Maps
  • Weather Map
  • News
  • Weather Widgets
  • user-avatar
    Login

    Hourly Weather Kryash-Shuran

    Today, 18 January, Friday

    Time Temperature Precipitation Wind Pressure Humidity
    00:00 -17°C° 0 mm 4 mps 751 mmHg 93%
    01:00 -17°C° 0 mm 4 mps 751 mmHg 93%
    02:00 -17°C° 0 mm 4 mps 751 mmHg 93%
    03:00 -17°C° 0 mm 4 mps 751 mmHg 92%
    04:00 -17°C° 0 mm 5 mps 750 mmHg 92%
    05:00 -17°C° 0 mm 5 mps 750 mmHg 91%
    06:00 -16°C° 0 mm 6 mps 750 mmHg 91%
    07:00 -17°C° 0 mm 7 mps 749 mmHg 91%
    08:00 -15°C° 0 mm 7 mps 749 mmHg 89%
    09:00 -15°C° 0 mm 8 mps 749 mmHg 87%
    10:00 -14°C° 0 mm 9 mps 748 mmHg 85%
    11:00 -14°C° 0.1 mm 9 mps 748 mmHg 85%
    12:00 -14°C° 0.1 mm 9 mps 748 mmHg 86%
    13:00 -12°C° 0.1 mm 9 mps 748 mmHg 87%
    14:00 -12°C° 0.1 mm 8 mps 748 mmHg 87%
    15:00 -11°C° 0.1 mm 8 mps 748 mmHg 87%
    16:00 -11°C° 0.1 mm 7 mps 748 mmHg 87%
    17:00 -9°C° 0 mm 7 mps 748 mmHg 88%
    18:00 -9°C° 0 mm 7 mps 749 mmHg 89%
    19:00 -9°C° 0 mm 6 mps 749 mmHg 89%
    20:00 -8°C° 0 mm 6 mps 749 mmHg 90%
    21:00 -8°C° 0 mm 6 mps 749 mmHg 90%
    22:00 -7°C° 0 mm 5 mps 750 mmHg 91%
    23:00 -7°C° 0 mm 5 mps 750 mmHg 91%

    Tomorrow, 19 January, Saturday

    Time Temperature Precipitation Wind Pressure Humidity
    00:00 -7°C° 0 mm 5 mps 750 mmHg 91%
    01:00 -6°C° 0 mm 5 mps 750 mmHg 92%
    02:00 -7°C° 0 mm 5 mps 750 mmHg 92%
    03:00 -7°C° 0 mm 5 mps 750 mmHg 92%
    04:00 -7°C° 0 mm 5 mps 750 mmHg 92%
    05:00 -7°C° 0 mm 5 mps 750 mmHg 92%
    06:00 -7°C° 0 mm 5 mps 749 mmHg 92%
    07:00 -8°C° 0 mm 6 mps 749 mmHg 92%
    08:00 -8°C° 0 mm 6 mps 749 mmHg 92%
    09:00 -8°C° 0 mm 6 mps 749 mmHg 91%
    10:00 -8°C° 0 mm 6 mps 749 mmHg 91%
    11:00 -8°C° 0 mm 6 mps 748 mmHg 90%
    12:00 -6°C° 0 mm 6 mps 748 mmHg 90%
    13:00 -6°C° 0 mm 6 mps 748 mmHg 89%
    14:00 -6°C° 0 mm 6 mps 748 mmHg 90%
    15:00 -6°C° 0 mm 6 mps 748 mmHg 90%
    16:00 -6°C° 0 mm 6 mps 748 mmHg 90%
    17:00 -5°C° 0 mm 6 mps 748 mmHg 91%
    18:00 -5°C° 0 mm 5 mps 748 mmHg 91%
    19:00 -5°C° 0 mm 5 mps 748 mmHg 92%
    20:00 -5°C° 0.1 mm 5 mps 747 mmHg 92%
    21:00 -5°C° 0.1 mm 5 mps 747 mmHg 93%
    22:00 -4°C° 0.1 mm 4 mps 747 mmHg 94%
    23:00 -4°C° 0.6 mm 4 mps 747 mmHg 94%

    Day after tomorrow, 20 January, Sunday

    Time Temperature Precipitation Wind Pressure Humidity
    00:00 -4°C° 0.6 mm 4 mps 746 mmHg 94%
    01:00 -5°C° 0.6 mm 5 mps 746 mmHg 94%
    02:00 -4°C° 0.5 mm 5 mps 746 mmHg 94%
    03:00 -4°C° 0.5 mm 5 mps 746 mmHg 94%
    04:00 -4°C° 0.5 mm 5 mps 746 mmHg 94%
    05:00 -6°C° 0.2 mm 5 mps 746 mmHg 94%
    06:00 -8°C° 0.2 mm 5 mps 746 mmHg 94%
    07:00 -11°C° 0.2 mm 6 mps 747 mmHg 93%
    08:00 -13°C° 0 mm 5 mps 747 mmHg 93%
    09:00 -15°C° 0 mm 5 mps 748 mmHg 93%
    10:00 -18°C° 0 mm 5 mps 748 mmHg 92%
    11:00 -18°C° 0 mm 5 mps 749 mmHg 93%
    12:00 -17°C° 0 mm 5 mps 749 mmHg 93%
    13:00 -17°C° 0 mm 5 mps 750 mmHg 93%
    14:00 -17°C° 0 mm 5 mps 750 mmHg 93%
    15:00 -15°C° 0 mm 4 mps 751 mmHg 93%
    16:00 -15°C° 0 mm 4 mps 751 mmHg 93%
    17:00 -16°C° 0 mm 4 mps 752 mmHg 93%
    18:00 -15°C° 0 mm 3 mps 752 mmHg 94%
    19:00 -15°C° 0 mm 3 mps 753 mmHg 94%
    20:00 -16°C° 0 mm 3 mps 753 mmHg 95%
    21:00 -16°C° 0 mm 3 mps 753 mmHg 95%
    22:00 -17°C° 0 mm 3 mps 753 mmHg 96%
    23:00 -17°C° 0 mm 3 mps 753 mmHg 95%

    21 January, Monday

    Time Temperature Precipitation Wind Pressure Humidity
    00:00 -18°C° 0 mm 4 mps 753 mmHg 95%
    01:00 -18°C° 0 mm 4 mps 753 mmHg 95%
    02:00 -18°C° 0 mm 5 mps 753 mmHg 94%
    03:00 -17°C° 0 mm 5 mps 753 mmHg 94%
    04:00 -17°C° 0 mm 6 mps 753 mmHg 93%
    05:00 -16°C° 0 mm 6 mps 753 mmHg 92%
    06:00 -16°C° 0 mm 6 mps 753 mmHg 92%
    07:00 -17°C° 0 mm 7 mps 752 mmHg 91%
    08:00 -17°C° 0 mm 7 mps 752 mmHg 90%
    09:00 -15°C° 0 mm 7 mps 753 mmHg 89%
    10:00 -15°C° 0 mm 7 mps 753 mmHg 88%
    11:00 -15°C° 0 mm 7 mps 753 mmHg 87%
    12:00 -14°C° 0 mm 7 mps 753 mmHg 87%
    13:00 -14°C° 0 mm 7 mps 753 mmHg 86%
    14:00 -14°C° 0 mm 7 mps 752 mmHg 86%
    15:00 -14°C° 0 mm 6 mps 752 mmHg 86%
    16:00 -14°C° 0 mm 6 mps 752 mmHg 86%
    17:00 -14°C° 0 mm 6 mps 752 mmHg 87%
    18:00 -14°C° 0 mm 6 mps 752 mmHg 87%
    19:00 -15°C° 0 mm 7 mps 751 mmHg 88%
    20:00 -15°C° 0.1 mm 7 mps 751 mmHg 89%
    21:00 -15°C° 0.1 mm 6 mps 751 mmHg 90%
    22:00 -15°C° 0.1 mm 6 mps 751 mmHg 91%
    23:00 -15°C° 0.2 mm 6 mps 750 mmHg 91%

    22 January, Tuesday

    Time Temperature Precipitation Wind Pressure Humidity
    00:00 -14°C° 0.2 mm 6 mps 750 mmHg 91%
    01:00 -14°C° 0.2 mm 6 mps 750 mmHg 91%
    02:00 -13°C° 0.3 mm 5 mps 749 mmHg 92%
    03:00 -14°C° 0.3 mm 5 mps 749 mmHg 93%
    04:00 -14°C° 0.3 mm 5 mps 748 mmHg 93%
    05:00 -14°C° 0.3 mm 4 mps 747 mmHg 94%
    06:00 -13°C° 0.3 mm 3 mps 747 mmHg 95%
    07:00 -12°C° 0.3 mm 2 mps 746 mmHg 96%
    08:00 -12°C° 0.3 mm 2 mps 745 mmHg 96%
    09:00 -12°C° 0.3 mm 2 mps 745 mmHg 96%
    10:00 -9°C° 0.3 mm 1 mps 744 mmHg 97%
    11:00 -10°C° 0.4 mm 2 mps 744 mmHg 96%
    12:00 -12°C° 0.4 mm 3 mps 743 mmHg 96%
    13:00 -10°C° 0.4 mm 3 mps 743 mmHg 96%
    14:00 -12°C° 0.4 mm 4 mps 743 mmHg 95%
    15:00 -13°C° 0.4 mm 5 mps 743 mmHg 94%
    16:00 -14°C° 0.4 mm 6 mps 744 mmHg 93%
    17:00 -17°C° 0.1 mm 6 mps 745 mmHg 93%
    18:00 -20°C° 0.1 mm 6 mps 746 mmHg 94%
    19:00 -22°C° 0.1 mm 6 mps 747 mmHg 94%
    20:00 -24°C° 0 mm 6 mps 748 mmHg 95%
    21:00 -26°C° 0 mm 5 mps 749 mmHg 96%
    22:00 -27°C° 0 mm 5 mps 750 mmHg 96%
    23:00 -27°C° 0 mm 4 mps 750 mmHg 97%

    23 January, Wednesday

    Time Temperature Precipitation Wind Pressure Humidity
    00:00 -29°C° 0 mm 4 mps 751 mmHg 97%
    01:00 -30°C° 0 mm 4 mps 752 mmHg 97%
    02:00 -30°C° 0 mm 4 mps 752 mmHg 97%
    03:00 -30°C° 0 mm 3 mps 753 mmHg 97%
    04:00 -31°C° 0 mm 3 mps 753 mmHg 98%
    05:00 -31°C° 0 mm 3 mps 754 mmHg 98%
    06:00 -32°C° 0 mm 3 mps 754 mmHg 98%
    07:00 -32°C° 0 mm 3 mps 755 mmHg 98%
    08:00 -32°C° 0 mm 3 mps 755 mmHg 98%
    09:00 -32°C° 0 mm 3 mps 756 mmHg 97%
    10:00 -33°C° 0 mm 3 mps 757 mmHg 97%
    11:00 -32°C° 0 mm 3 mps 757 mmHg 97%
    12:00 -31°C° 0 mm 3 mps 758 mmHg 96%
    13:00 -30°C° 0 mm 3 mps 758 mmHg 96%
    14:00 -30°C° 0 mm 3 mps 758 mmHg 96%
    15:00 -31°C° 0 mm 3 mps 759 mmHg 96%
    16:00 -31°C° 0 mm 3 mps 759 mmHg 96%
    17:00 -32°C° 0 mm 3 mps 760 mmHg 97%
    18:00 -32°C° 0 mm 3 mps 760 mmHg 97%
    19:00 -33°C° 0 mm 3 mps 761 mmHg 97%
    20:00 -31°C° 0 mm 2 mps 761 mmHg 98%
    21:00 -31°C° 0 mm 2 mps 762 mmHg 98%
    22:00 -31°C° 0 mm 2 mps 762 mmHg 98%
    23:00 -31°C° 0 mm 2 mps 763 mmHg 98%
    Show more